Simultaneous Nadir Overpasses (SNOs) Predictions

Prediction of SNOs between METOP-B and NOAA-19 Satellite Orbit:

Table of predicted SNOs for the next 14.0 days since TLE Epoch: 10/26/2014
Index Date (METOP-B) Time (METOP-B) Lat,Lon (METOP-B) SZA (METOP-B ) Date (NOAA-19) Time (NOAA-19) Lat,Lon (NOAA-19) SZA (NOAA-19 ) Distance(km) Time Diff (sec)
1 11/04/2014 17:55:15 74.86, -91.74 90.29 11/04/2014 17:54:07 74.85, -94.37 90.28 76.40 68
2 11/04/2014 18:46:07 -74.37, 74.24 90.21 11/04/2014 18:44:57 -74.36, 74.25 90.21 0.35 70
3 11/04/2014 19:36:47 74.36,-118.43 89.80 11/04/2014 19:36:00 74.36,-118.51 89.80 2.43 47
4 11/04/2014 20:27:29 -74.35, 48.86 90.20 11/04/2014 20:27:00 -74.35, 48.77 90.21 2.64 29
5 11/04/2014 21:18:10 74.30,-143.94 89.76 11/04/2014 21:18:02 74.30,-143.86 89.76 2.39 8
6 11/04/2014 22:08:52 -74.29, 23.35 90.25 11/04/2014 22:09:02 -74.29, 23.42 90.25 2.14 10
7 11/04/2014 22:59:32 74.28,-169.32 89.77 11/04/2014 23:00:05 74.29,-169.34 89.77 0.57 33
8 11/04/2014 23:50:14 -74.27, -2.03 90.24 11/04/2014 23:51:05 -74.27, -2.05 90.24 0.75 51
9 11/05/2014 00:40:54 74.27, 165.30 89.77 11/05/2014 00:42:08 74.27, 165.19 89.78 3.46 74
10 11/05/2014 01:31:50 -73.57, -29.08 90.92 11/05/2014 01:32:55 -73.63, -25.94 90.86 99.01 65




NCC Satellite Simultaneous Nadir Overpasses (SNOs) Prediction Service
